• In Uzbekistan
  • List of Countries
  • For 7 days
  • Water Temperature
  • Satellite Maps
  • Weather Map
  • Weather Widgets
  • user-avatar
    Login

    Hourly Weather Sevan

    Today, 23 February, Thursday

    Time Temperature Precipitation Wind Pressure Humidity
    00:00 -8°C° 0.1 mm 2 mps 636 mmHg 93%
    01:00 -7°C° 0.1 mm 2 mps 637 mmHg 93%
    02:00 -6°C° 0.1 mm 1 mps 637 mmHg 93%
    03:00 -5°C° 0 mm 2 mps 637 mmHg 94%
    04:00 -3°C° 0.5 mm 1 mps 637 mmHg 95%
    05:00 -3°C° 0.5 mm 1 mps 637 mmHg 95%
    06:00 -4°C° 0.5 mm 1 mps 637 mmHg 95%
    07:00 -3°C° 0.2 mm 1 mps 638 mmHg 95%
    08:00 -2°C° 0.2 mm 1 mps 638 mmHg 94%
    09:00 -1°C° 0 mm 1 mps 638 mmHg 94%
    10:00 0°C° 0.1 mm 1 mps 639 mmHg 94%
    11:00 -2°C° 0.1 mm 2 mps 639 mmHg 94%
    12:00 -1°C° 0.1 mm 2 mps 639 mmHg 94%
    13:00 -1°C° 0 mm 2 mps 639 mmHg 94%
    14:00 -1°C° 0 mm 2 mps 639 mmHg 94%
    15:00 -1°C° 0 mm 2 mps 639 mmHg 94%
    16:00 -2°C° 0 mm 2 mps 639 mmHg 95%
    17:00 -2°C° 0 mm 1 mps 639 mmHg 95%
    18:00 -4°C° 0 mm 1 mps 638 mmHg 95%
    19:00 -6°C° 0 mm 1 mps 638 mmHg 95%
    20:00 -7°C° 0 mm 1 mps 638 mmHg 94%
    21:00 -8°C° 0 mm 1 mps 638 mmHg 94%
    22:00 -9°C° 0 mm 1 mps 638 mmHg 93%
    23:00 -9°C° 0 mm 1 mps 639 mmHg 93%

    Tomorrow, 24 February, Friday

    Time Temperature Precipitation Wind Pressure Humidity
    00:00 -9°C° 0 mm 1 mps 639 mmHg 92%
    01:00 -9°C° 0 mm 1 mps 639 mmHg 92%
    02:00 -9°C° 0 mm 1 mps 639 mmHg 92%
    03:00 -9°C° 0 mm 1 mps 639 mmHg 92%
    04:00 -9°C° 0 mm 1 mps 639 mmHg 91%
    05:00 -10°C° 0 mm 1 mps 639 mmHg 91%
    06:00 -10°C° 0 mm 1 mps 638 mmHg 91%
    07:00 -7°C° 0 mm 1 mps 640 mmHg 91%
    08:00 -3°C° 0 mm 1 mps 641 mmHg 91%
    09:00 0°C° 0 mm 1 mps 642 mmHg 91%
    10:00 +1°C° 0 mm 1 mps 642 mmHg 91%
    11:00 +2°C° 0 mm 1 mps 642 mmHg 91%
    12:00 +3°C° 0 mm 1 mps 642 mmHg 91%
    13:00 +3°C° 0 mm 1 mps 642 mmHg 91%
    14:00 +4°C° 0 mm 1 mps 642 mmHg 92%
    15:00 +4°C° 0 mm 1 mps 642 mmHg 92%
    16:00 +1°C° 0 mm 1 mps 641 mmHg 93%
    17:00 -2°C° 0 mm 1 mps 640 mmHg 94%
    18:00 -6°C° 0 mm 1 mps 640 mmHg 95%
    19:00 -7°C° 0 mm 1 mps 640 mmHg 95%
    20:00 -7°C° 0 mm 1 mps 640 mmHg 94%
    21:00 -8°C° 0 mm 1 mps 640 mmHg 94%
    22:00 -8°C° 0 mm 1 mps 640 mmHg 94%
    23:00 -9°C° 0 mm 1 mps 640 mmHg 93%

    Day after tomorrow, 25 February, Saturday

    Time Temperature Precipitation Wind Pressure Humidity
    00:00 -9°C° 0 mm 1 mps 640 mmHg 93%
    01:00 -9°C° 0 mm 1 mps 640 mmHg 93%
    02:00 -9°C° 0 mm 1 mps 640 mmHg 92%
    03:00 -9°C° 0 mm 1 mps 640 mmHg 92%
    04:00 -9°C° 0 mm 1 mps 640 mmHg 92%
    05:00 -9°C° 0 mm 1 mps 640 mmHg 91%
    06:00 -10°C° 0 mm 1 mps 640 mmHg 91%
    07:00 -6°C° 0 mm 1 mps 642 mmHg 90%
    08:00 -2°C° 0 mm 1 mps 643 mmHg 88%
    09:00 +2°C° 0 mm 1 mps 645 mmHg 87%
    10:00 +3°C° 0 mm 1 mps 645 mmHg 86%
    11:00 +4°C° 0 mm 1 mps 644 mmHg 85%
    12:00 +5°C° 0 mm 1 mps 644 mmHg 85%
    13:00 +5°C° 0 mm 1 mps 644 mmHg 86%
    14:00 +5°C° 0 mm 1 mps 643 mmHg 86%
    15:00 +5°C° 0 mm 1 mps 643 mmHg 87%
    16:00 +1°C° 0 mm 1 mps 641 mmHg 89%
    17:00 -2°C° 0 mm 1 mps 640 mmHg 90%
    18:00 -7°C° 0 mm 1 mps 639 mmHg 92%
    19:00 -8°C° 0 mm 1 mps 639 mmHg 91%
    20:00 -8°C° 0 mm 1 mps 639 mmHg 91%
    21:00 -8°C° 0 mm 1 mps 640 mmHg 90%
    22:00 -8°C° 0 mm 1 mps 640 mmHg 90%
    23:00 -8°C° 0 mm 1 mps 640 mmHg 90%

    26 February, Sunday

    Time Temperature Precipitation Wind Pressure Humidity
    00:00 -8°C° 0 mm 1 mps 640 mmHg 89%
    01:00 -8°C° 0 mm 1 mps 639 mmHg 89%
    02:00 -8°C° 0 mm 1 mps 639 mmHg 89%
    03:00 -8°C° 0 mm 1 mps 639 mmHg 89%
    04:00 -8°C° 0 mm 1 mps 639 mmHg 88%
    05:00 -8°C° 0 mm 1 mps 639 mmHg 88%
    06:00 -8°C° 0 mm 1 mps 639 mmHg 88%
    07:00 -4°C° 0 mm 1 mps 640 mmHg 86%
    08:00 -1°C° 0 mm 1 mps 641 mmHg 84%
    09:00 +2°C° 0 mm 1 mps 641 mmHg 83%
    10:00 +3°C° 0 mm 1 mps 641 mmHg 83%
    11:00 +4°C° 0 mm 1 mps 641 mmHg 83%
    12:00 +5°C° 0 mm 1 mps 640 mmHg 84%
    13:00 +5°C° 0 mm 1 mps 640 mmHg 85%
    14:00 +5°C° 0 mm 1 mps 640 mmHg 87%
    15:00 +5°C° 0 mm 1 mps 640 mmHg 88%
    16:00 +3°C° 0 mm 1 mps 639 mmHg 90%
    17:00 0°C° 0 mm 1 mps 638 mmHg 91%
    18:00 -2°C° 0 mm 1 mps 638 mmHg 92%
    19:00 -2°C° 0 mm 1 mps 638 mmHg 92%
    20:00 -3°C° 0 mm 1 mps 638 mmHg 92%
    21:00 -3°C° 0 mm 1 mps 639 mmHg 91%
    22:00 -3°C° 0 mm 1 mps 639 mmHg 90%
    23:00 -2°C° 0 mm 1 mps 639 mmHg 90%

    27 February, Monday

    Time Temperature Precipitation Wind Pressure Humidity
    00:00 -2°C° 0 mm 1 mps 639 mmHg 89%
    01:00 -1°C° 0.2 mm 1 mps 640 mmHg 90%
    02:00 -2°C° 0.2 mm 0 mps 640 mmHg 90%
    03:00 -2°C° 0.2 mm 0 mps 640 mmHg 91%
    04:00 -1°C° 0.3 mm 0 mps 641 mmHg 91%
    05:00 -1°C° 0.3 mm 0 mps 641 mmHg 92%
    06:00 -1°C° 0.3 mm 0 mps 641 mmHg 93%
    07:00 0°C° 0.1 mm 0 mps 642 mmHg 91%
    08:00 +1°C° 0.1 mm 0 mps 642 mmHg 88%
    09:00 +2°C° 0.1 mm 0 mps 643 mmHg 86%
    10:00 +4°C° 0.1 mm 1 mps 643 mmHg 86%
    11:00 +5°C° 0.1 mm 1 mps 643 mmHg 85%
    12:00 +5°C° 0.1 mm 1 mps 642 mmHg 85%
    13:00 +5°C° 0.1 mm 1 mps 642 mmHg 85%
    14:00 +5°C° 0.1 mm 1 mps 642 mmHg 85%
    15:00 +6°C° 0.1 mm 1 mps 641 mmHg 85%
    16:00 +3°C° 0 mm 1 mps 641 mmHg 88%
    17:00 +1°C° 0 mm 1 mps 640 mmHg 91%
    18:00 -1°C° 0 mm 1 mps 639 mmHg 93%
    19:00 -2°C° 0 mm 1 mps 639 mmHg 93%
    20:00 -3°C° 0 mm 1 mps 639 mmHg 92%
    21:00 -4°C° 0 mm 1 mps 639 mmHg 92%
    22:00 -4°C° 0 mm 1 mps 639 mmHg 91%
    23:00 -4°C° 0 mm 1 mps 639 mmHg 90%

    28 February, Tuesday

    Time Temperature Precipitation Wind Pressure Humidity
    00:00 -4°C° 0 mm 1 mps 639 mmHg 90%
    01:00 -4°C° 0 mm 1 mps 639 mmHg 90%
    02:00 -4°C° 0 mm 1 mps 639 mmHg 90%
    03:00 -4°C° 0 mm 1 mps 639 mmHg 90%
    04:00 -6°C° 0 mm 1 mps 639 mmHg 90%
    05:00 -6°C° 0 mm 1 mps 639 mmHg 90%
    06:00 -6°C° 0 mm 1 mps 639 mmHg 90%
    07:00 -2°C° 0 mm 1 mps 640 mmHg 87%
    08:00 0°C° 0 mm 1 mps 641 mmHg 85%
    09:00 +3°C° 0 mm 1 mps 643 mmHg 82%
    10:00 +4°C° 0 mm 1 mps 642 mmHg 81%
    11:00 +5°C° 0 mm 1 mps 642 mmHg 80%
    12:00 +6°C° 0 mm 1 mps 642 mmHg 79%
    13:00 +6°C° 0 mm 1 mps 642 mmHg 79%
    14:00 +6°C° 0 mm 1 mps 642 mmHg 79%
    15:00 +6°C° 0 mm 1 mps 642 mmHg 79%
    16:00 +4°C° 0 mm 1 mps 641 mmHg 83%
    17:00 +1°C° 0 mm 1 mps 640 mmHg 86%
    18:00 -1°C° 0 mm 1 mps 640 mmHg 90%
    19:00 -2°C° 0 mm 1 mps 640 mmHg 90%
    20:00 -2°C° 0 mm 1 mps 640 mmHg 89%
    21:00 -3°C° 0 mm 1 mps 641 mmHg 89%
    22:00 -3°C° 0 mm 1 mps 641 mmHg 88%
    23:00 -4°C° 0 mm 1 mps 641 mmHg 88%
    Show more